Other Surface Observations
Issued by NWS Tucson, AZ

Home | Current Version | Previous Version | Text Only | Print | Product List | Glossary On
Versions: 1 2 3 4 5 6 7 8 9 10 11 12 13 14 15 16 17 18 19 20 21 22 23 24 25 26 27 28 29 30 31 32 33 34 35 36 37 38 39 40 41 42 43 44 45 46 47 48 49 50
728
SXUS55 KTWC 181815
OSOTWC

WEATHER ROUNDUP FOR SOUTHEAST ARIZONA
NATIONAL WEATHER SERVICE TUCSON AZ
1115 AM MST SUN FEB 18 2018

AZZ504>506-514-181915-
LOCATION       SKY/WX    TMP DP  RH WIND       PRES   REMARKS
TUCSON         PTSUNNY   64  48  56 CALM      30.01F
DAVIS-MONTHAN  MOSUNNY   64  56  77 CALM      30.00F
CHILDRENS PARK N/A      N/A N/A  73 SE4               PIMA CO DEQ
ALVERNON/22ND  N/A       60 N/A N/A E2                PIMA CO DEQ
CHERRY/GLENN   N/A       62 N/A N/A N/A               PIMA CO DEQ
TANGERINE      N/A       58 N/A N/A SE4               PIMA CO DEQ
CONTL RANCH    N/A       58  51  78 SE5               PIMA CO DEQ
GRANT/1ST      N/A       59  50  71 SE2               PIMA CO DEQ
CRAYCROFT/22ND N/A       61  50  68 E1                PIMA CO DEQ
GOLFLINKS/KOLB N/A       59  50  72 NE2               PIMA CO DEQ
AJO/12TH       N/A       60  51  71 S1                PIMA CO DEQ
FAIRGROUNDS    N/A       59 N/A N/A SW4               PIMA CO DEQ
SAGUARO        N/A       67  51  56 SE3               *SABINO CYN
SAN CARLOS     N/A       57  48  73 CALM              *SAN CARLOS
GREEN VALLEY   N/A       59  51  74 S4                PIMA CO DEQ
HORSE CAMP CYN N/A       56  45  66 SW3               *ARAVAIPA CYN
RINCON MTNS    N/A       42  36  80 SW3G10            *NR MANNING CAMP
$$

AZZ509>511-181915-
LOCATION       SKY/WX    TMP DP  RH WIND       PRES   REMARKS
SAFFORD        PTSUNNY   61  46  57 SE3       29.99F
STRAY HORSE    N/A       40  36  87 SW7G19            *
TRAIL CABIN    N/A       54  41  61 SW5G15            *N OF GRANVILLE
BLACK HILLS    NOT AVBL
DRY LAKE       N/A       44  42  93 SW5G10            *NATANES MTNS
NOON CREEK     N/A       57  47  70 NE3               *PINALENO MTNS
COLUMBINE      N/A       34  34  99 SW3G10            *PINALENO MTNS
GUTHRIE        N/A       51  44  78 SW7G11            *SW OF GUTHRIE
$$

AZZ502-503-513-181915-
LOCATION       SKY/WX    TMP DP  RH WIND       PRES   REMARKS
NOGALES        CLOUDY    61  50  67 S5        30.04S
SELLS          N/A       66  47  51 S5                *
SASABE         N/A       63  43  48 S7G10             *ALTAR VLY
HOPKINS        N/A       44  44  100 W8G15            *SANTA RITA MTNS
CARR CYN       N/A       59  45  59 SW3               *W OF HEREFORD
$$

AZZ507-508-512-181915-
LOCATION       SKY/WX    TMP DP  RH WIND       PRES   REMARKS
SIERRA VISTA   CLOUDY    61  45  56 SW10      30.06S
DOUGLAS        PTSUNNY   60  48  64 S6        30.04S
EMPIRE MTNS    NOT AVBL
MULESHOE RANCH N/A       60  42  52 NW3               *PRESERVE
HEADQUARTERS   N/A       55  45  69 W6G16             *CHIRICAHUA MTNS
$$

.............................NOTES.............................
THIS IS AN AUTOMATED COLLECTIVE WITH MINIMAL QUALITY CONTROL.
PIMA CO DEQ SITES HAVE NONSTANDARD WIND SENSOR HEIGHTS.
PIMA CO DEQ SITES DO NOT REPORT WIND GUSTS.
* INDICATES WIND SENSORS LOCATED AT 20 FEET INSTEAD OF 33 FEET.
..............................KEY..............................
SKY/WX - SKY CONDITION/WEATHER
TMP    - TEMPERATURE IN FAHRENHEIT
DP     - DEWPOINT IN FAHRENHEIT
RH     - RELATIVE HUMIDITY IN PERCENT
WIND   - DIRECTION AND SPEED IN MILES PER HOUR (MPH)
VRB    - VARIABLE WIND DIRECTION
PRES   - MEAN SEA LEVEL PRESSURE IN INCHES OF MERCURY
         F - FALLING PRESSURE   R - RISING PRESSURE
         S - STEADY PRESSURE
VSB    - VISIBILITY IN MILES
HX     - HEAT INDEX IN FAHRENHEIT
WCI    - WIND CHILL INDEX IN FAHRENHEIT
N/A    - NOT AVAILABLE
AFB    - AIR FORCE BASE
         DAVIS-MONTHAN IS DAVIS-MONTHAN AIR FORCE BASE
CYN    - CANYON
MTNS   - MOUNTAINS
NCA    - NATIONAL CONSERVATION AREA
NR     - NEAR
VLY    - VALLEY
CONTL  - CONTINENTAL
PIMA CO DEQ - PIMA COUNTY DEPT OF ENVIRONMENTAL QUALITY



USA.gov is the U.S. government's official web portal to all federal, state and local government web resources and services.